Weather History for KAGS - June, 2013

Change the Weather History Date:

Thursday, June 27, 2013

  Actual Average Record
Temperature  
Mean Temperature 82 °F 80 °F  
Max Temperature 92 °F 93 °F 104 °F (1950)
Min Temperature 71 °F 68 °F 56 °F (2012)
Degree Days  
Heating Degree Days 0 0  
Month to date heating degree days 0 0  
Since 1 June heating degree days 0 0  
Since 1 July heating degree days 2386 2471  
Cooling Degree Days 17 15  
Month to date cooling degree days 348 361  
Year to date cooling degree days 557 644  
Since 1 June cooling degree days 348 361  
Growing Degree Days 31 (Base 50)    
Moisture  
Dew Point 72 °F    
Average Humidity 76    
Maximum Humidity 100    
Minimum Humidity 52    
Precipitation  
Precipitation 0.39 in 0.15 in 1.86 in (1982)
Month to date precipitation 10.52 4.29  
Year to date precipitation 30.12 21.79  
Sea Level Pressure  
Sea Level Pressure 29.89 in    
Wind  
Wind Speed 8 mph (WSW)    
Max Wind Speed 29 mph    
Max Gust Speed 38 mph    
Visibility 8 miles    
Events Fog , Rain , Thunderstorm    
T = Trace of Precipitation, MM = Missing Value Source: NWS Daily Summary

Daily Weather History Graph

Daily Weather History Graph

Search for Another Location

Airport or City:

Trip Planner

Search our weather history database for the weather conditions in past years. The results will help you decide how hot, cold, wet, or windy it might be!

Date:

Astronomy

Jun. 27, 2013 Rise Set
Actual Time 6:20 AM EDT 8:41 PM EDT
Civil Twilight 5:51 AM EDT 9:10 PM EDT
Nautical Twilight 5:16 AM EDT 9:45 PM EDT
Astronomical Twilight 4:37 AM EDT 10:24 PM EDT
Moon 11:55 PM EDT (6/27) 11:04 AM EDT (6/27)
Length of Visible Light 15h 18m
Length of Day
14h 20m
Waning Gibbous, 76% of the Moon is Illuminated
Jun 27
Waning Gibbous
Jun 30
Last Quarter
Jul 8
New
Jul 15
First Quarter
Jul 22
Full

Hourly Weather History & Observations

Time (EDT) Temp. Heat Index Dew Point Humidity Pressure Visibility Wind Dir Wind Speed Gust Speed Precip Events Conditions
12:53 AM 73.9 °F - 72.0 °F 93% 29.97 in 10.0 mi Calm Calm - N/A   Clear
1:53 AM 72.0 °F - 71.1 °F 97% 29.97 in 7.0 mi Calm Calm - N/A   Clear
2:13 AM 71.6 °F - 69.8 °F 94% 29.97 in 1.8 mi Calm Calm - N/A   Clear
2:30 AM 71.6 °F - 71.6 °F 100% 29.97 in 2.5 mi Calm Calm - N/A   Clear
2:42 AM 71.6 °F - 71.6 °F 100% 29.97 in 4.0 mi Calm Calm - N/A   Clear
2:53 AM 71.1 °F - 71.1 °F 100% 29.96 in 8.0 mi Calm Calm - N/A   Clear
3:08 AM 71.6 °F - 71.6 °F 100% 29.96 in 1.8 mi Calm Calm - N/A   Clear
3:18 AM 71.6 °F - 71.6 °F 100% 29.96 in 3.0 mi Calm Calm - N/A   Clear
3:53 AM 73.0 °F - 72.0 °F 96% 29.94 in 10.0 mi SSW 3.5 mph - N/A   Clear
4:53 AM 73.9 °F - 73.0 °F 97% 29.92 in 10.0 mi SW 6.9 mph - N/A   Clear
5:53 AM 73.9 °F - 73.0 °F 97% 29.94 in 10.0 mi SW 6.9 mph - N/A   Clear
6:53 AM 75.0 °F - 73.0 °F 94% 29.94 in 10.0 mi WSW 8.1 mph - 0.01 in   Clear
7:53 AM 77.0 °F - 73.0 °F 88% 29.94 in 10.0 mi SW 8.1 mph - N/A   Clear
8:53 AM 81.0 °F 86.2 °F 73.9 °F 79% 29.94 in 10.0 mi West 10.4 mph - N/A   Clear
9:53 AM 84.0 °F 91.9 °F 75.0 °F 74% 29.93 in 10.0 mi West 9.2 mph - N/A   Clear
10:53 AM 87.1 °F 96.3 °F 75.0 °F 67% 29.92 in 10.0 mi West 11.5 mph - N/A   Clear
11:53 AM 88.0 °F 96.5 °F 73.9 °F 63% 29.91 in 10.0 mi WSW 15.0 mph 21.9 mph N/A   Scattered Clouds
12:53 PM 90.0 °F 97.9 °F 73.0 °F 57% 29.89 in 10.0 mi WSW 10.4 mph 17.3 mph N/A   Scattered Clouds
1:53 PM 91.9 °F 99.5 °F 72.0 °F 52% 29.88 in 10.0 mi West 15.0 mph 21.9 mph N/A   Scattered Clouds
2:53 PM 91.9 °F 100.7 °F 73.0 °F 54% 29.85 in 10.0 mi WSW 10.4 mph - N/A   Partly Cloudy
3:53 PM 90.0 °F 97.9 °F 73.0 °F 57% 29.83 in 10.0 mi WSW 12.7 mph - N/A   Partly Cloudy
4:53 PM 91.0 °F 98.2 °F 72.0 °F 53% 29.81 in 10.0 mi West 11.5 mph 20.7 mph N/A   Scattered Clouds
5:53 PM 90.0 °F 96.9 °F 72.0 °F 55% 29.80 in 10.0 mi West 11.5 mph 23.0 mph N/A   Clear
6:53 PM 89.1 °F 97.0 °F 73.0 °F 59% 29.80 in 10.0 mi SW 10.4 mph - N/A   Partly Cloudy
7:53 PM 86.0 °F 92.2 °F 72.0 °F 63% 29.78 in 10.0 mi SW 8.1 mph - N/A Thunderstorm Mostly Cloudy
8:09 PM 78.8 °F - 71.6 °F 78% 29.83 in 0.8 mi West 24.2 mph 38.0 mph 0.00 in Rain , Thunderstorm Light Thunderstorms and Rain
8:17 PM 75.2 °F - 71.6 °F 89% 29.83 in 0.2 mi SW 9.2 mph 25.3 mph 0.30 in Fog , Rain , Thunderstorm Heavy Thunderstorms and Rain
8:20 PM 75.2 °F - 71.6 °F 89% 29.83 in 10.0 mi SW 8.1 mph 25.3 mph 0.38 in Rain , Thunderstorm Heavy Thunderstorms and Rain
8:53 PM 73.9 °F - 71.1 °F 91% 29.83 in 10.0 mi SSW 10.4 mph - 0.39 in Thunderstorm Scattered Clouds
9:00 PM 73.4 °F - 71.6 °F 94% 29.82 in 10.0 mi South 10.4 mph - N/A   Scattered Clouds
9:53 PM 73.0 °F - 72.0 °F 96% 29.81 in 10.0 mi Calm Calm - N/A   Clear
10:53 PM 75.0 °F - 73.0 °F 94% 29.83 in 10.0 mi WSW 8.1 mph - N/A   Clear
11:53 PM 75.0 °F - 72.0 °F 90% 29.82 in 10.0 mi WSW 11.5 mph - N/A   Clear